Location: Newark
(43.0000°N, 1.6781°W)
Time: 07:47:20
(UTC+00:00)

Courier 1B Rocket - Pass Details

Date: 19 April 2021
Orbit: 920 x 1202 km, 28.2° (Epoch: 09 May)

Event Time Altitude Azimuth Distance (km) Brightness Sun altitude
Rises 19:52:36 0° 223° (SW) 3,700 8.3 -10.8°
Reaches altitude 10° 19:56:04 10° 206° (SSW) 2,804 7.4 -11.3°
Maximum altitude 20:00:36 19° 164° (SSE) 2,294 6.6 -12.0°
Enters shadow 20:03:32 15° 136° (SE) 2,581 6.6 -12.5°
